Simultaneous Nadir Overpasses (SNOs) Predictions

Prediction of SNOs between GOES-15 and TERRA Satellite Orbit:

Table of predicted SNOs for the next 14.0 days since TLE Epoch: 8/26/2012
Index Date Time (GOES-15) GOES-15 Lat,Lon TERRA Lat,Lon Distance(km) Time Diff (sec)
1 08/27/2012 19:15:18 -0.32,-134.33 -0.98,-131.21 355.59 80
2 08/28/2012 07:34:02 0.34,-134.26 -0.09,-136.41 243.81 80
3 08/30/2012 07:24:31 0.34,-134.16 0.52,-133.45 80.97 80
4 09/01/2012 07:12:19 0.34,-134.05 1.07,-130.48 405.44 80
5 09/01/2012 19:30:55 -0.36,-134.07 0.00,-135.64 179.42 80
6 09/03/2012 19:21:24 -0.36,-133.97 -0.61,-132.69 144.78 80
7 09/04/2012 07:40:09 0.37,-133.90 -0.45,-137.89 453.40 80
8 09/05/2012 19:09:13 -0.35,-133.85 -1.24,-129.73 468.50 80
9 09/06/2012 07:27:57 0.36,-133.78 0.12,-134.92 129.94 80
10 09/08/2012 07:18:26 0.36,-133.66 0.75,-131.97 192.93 80
11 09/08/2012 19:37:01 -0.37,-133.66 0.39,-137.12 393.76 80




NCC Satellite Simultaneous Nadir Overpasses (SNOs) Prediction Service
